GFSNW_prec_kuchsnow_273.txt.gz
Snowfall_Accumulation
0.0 0.0 0.0 0.0 0.0 0.0 0.0 0.0 17.6 0.0 0.0 10.7 24.5 19.7 3.8 0.0 0.0 0.0 1.1 2.5 5.4 9.0 8.6 10.0 13.5 7.8 1.8 0.0 0.6 2.7 1.8 14.6 10.4 4.0 0.6 0.6 3.4 16.7 28.0 59.3 56.6 42.6 42.2 48.1
0.0 0.0 0.0 0.0 0.0 0.0 0.0 6.6 4.3 0.0 0.0 30.8 15.1 2.7 1.6 0.9 1.6 0.8 2.2 4.2 4.9 6.5 11.4 15.5 5.9 4.5 0.0 0.0 0.8 5.8 3.4 14.2 14.5 5.8 0.9 0.2 3.8 4.7 9.5 22.3 31.6 50.2 51.2 50.9
0.0 0.0 0.0 0.0 0.0 0.0 0.0 5.2 34.4 3.8 2.7 1.5 3.0 4.8 4.3 4.4 0.0 0.7 0.1 3.4 4.0 5.8 4.4 1.9 6.8 4.4 0.2 0.0 0.0 0.0 0.0 10.7 13.3 15.3 10.5 6.1 12.9 6.6 4.4 11.7 45.3 31.7 29.6 27.8
0.0 0.0 0.0 0.0 0.0 0.0 0.0 12.5 24.8 0.1 20.5 12.2 5.0 4.1 5.8 6.1 5.7 0.5 0.2 3.5 3.4 7.1 12.9 4.7 2.6 1.3 0.4 0.0 0.2 0.0 0.5 16.4 6.2 4.0 4.0 2.4 4.4 6.9 5.0 10.2 11.3 23.5 25.2 16.4
0.0 0.0 0.0 0.0 0.0 0.0 0.0 47.0 8.6 1.8 2.0 0.1 2.9 10.5 14.6 7.1 1.4 5.0 2.1 3.7 1.7 2.9 10.0 4.6 8.2 3.1 0.4 2.7 0.0 0.2 0.1 8.0 7.2 7.0 3.3 1.2 7.0 7.8 4.3 4.1 8.4 11.1 6.5 15.1
0.0 0.0 0.0 0.0 0.0 0.0 0.0 1.4 0.0 3.5 3.0 1.8 5.9 4.7 2.7 3.7 2.7 0.3 0.7 1.7 4.4 4.9 2.1 0.3 0.2 0.5 0.8 2.0 4.1 3.2 3.3 6.3 6.7 10.5 0.9 2.3 11.7 14.0 8.2 5.3 3.8 4.5 8.7 14.7
0.0 0.0 0.0 0.0 0.0 0.0 0.0 0.0 0.6 13.9 16.5 5.2 2.5 0.3 1.0 1.8 1.5 5.6 1.1 0.3 2.0 0.0 0.0 0.0 0.0 0.2 0.1 0.1 0.8 1.0 5.8 5.6 8.1 9.8 5.6 28.5 11.0 1.6 2.0 2.4 2.3 2.6 2.7 2.9
0.0 0.0 0.0 0.0 0.0 0.0 0.0 0.0 0.1 10.1 17.1 1.5 2.0 2.0 2.8 0.2 0.5 2.0 1.3 0.6 0.0 0.0 0.6 3.5 5.8 3.0 1.8 0.7 0.1 0.3 1.0 4.8 15.5 16.8 7.2 4.2 2.4 1.8 2.7 2.7 3.4 1.6 1.1 0.6
0.0 0.0 0.0 0.0 0.0 0.0 0.0 0.0 0.0 5.9 21.2 5.9 0.4 4.7 3.2 5.4 2.9 3.8 1.8 0.0 0.0 0.0 3.1 10.7 14.1 6.7 2.1 1.4 0.5 0.0 0.3 2.0 17.5 19.2 18.2 10.8 2.8 0.5 0.1 0.6 6.8 0.8 0.2 0.3
0.0 0.0 0.0 0.0 0.0 0.0 0.0 0.0 0.0 2.4 24.8 0.2 0.4 2.3 4.2 2.0 2.2 3.5 0.8 0.4 0.1 0.5 8.4 14.2 12.0 7.6 3.3 7.2 4.3 2.8 7.0 11.4 27.7 23.2 30.4 8.7 1.5 0.6 0.2 9.4 9.8 0.8 0.1 0.1
0.0 0.0 0.0 0.0 0.0 0.0 0.0 0.0 0.0 0.0 10.5 0.4 0.0 0.0 0.2 0.3 0.5 5.1 1.9 6.5 4.4 8.7 19.1 16.6 11.5 10.2 7.4 5.1 1.7 5.5 9.8 15.3 14.0 16.9 29.3 25.4 1.2 1.0 4.0 4.6 0.5 0.5 0.2 0.1
0.0 0.0 0.0 0.0 0.0 0.0 0.0 2.1 0.0 0.0 1.5 0.0 0.0 0.0 0.0 0.0 0.0 0.4 2.0 5.5 6.3 9.1 19.6 13.5 5.8 7.1 7.8 4.9 13.5 0.9 9.3 4.9 9.9 9.6 17.7 6.1 3.9 3.7 1.0 0.4 1.2 1.0 0.3 0.1
0.0 0.0 0.0 0.0 0.0 0.0 0.0 0.7 0.0 0.0 6.7 0.1 0.0 0.0 0.0 0.0 0.0 0.0 2.5 0.9 1.1 3.7 3.0 7.0 6.6 8.9 3.0 7.4 4.1 2.7 2.1 0.3 5.4 8.3 5.8 2.5 4.2 1.9 0.4 0.4 1.9 1.2 0.3 0.7
0.0 0.0 0.0 0.0 0.0 0.0 0.0 0.0 0.0 0.0 1.3 10.4 0.9 0.0 0.0 0.0 0.0 0.0 0.0 0.0 0.0 0.0 0.0 4.7 5.3 3.4 0.0 1.4 1.2 0.3 1.4 1.6 3.6 7.1 4.3 2.2 1.7 2.0 1.3 1.1 0.7 0.5 0.2 0.2
0.0 0.0 0.0 0.0 0.0 0.0 0.0 0.0 0.0 0.0 0.8 13.9 3.6 0.0 0.0 0.0 0.0 0.0 0.0 0.0 0.0 0.0 2.5 4.7 2.8 0.3 0.8 0.2 1.0 2.2 0.7 2.6 7.7 10.2 6.5 6.1 5.6 4.0 3.0 3.3 2.3 1.0 0.8 1.0
0.0 0.0 0.0 0.0 0.0 0.0 0.0 28.5 0.0 0.0 0.0 8.1 9.4 0.0 0.0 0.0 0.0 0.0 0.0 0.0 0.0 0.1 0.9 1.9 0.3 0.0 0.3 3.0 5.0 3.5 3.2 1.7 1.6 3.6 3.7 7.1 7.3 4.4 2.3 2.3 1.0 0.1 0.0 0.0
0.0 0.0 0.0 0.0 0.0 0.0 1.6 6.1 0.1 0.0 0.0 10.7 11.5 3.2 0.0 0.0 0.0 0.0 0.0 0.0 0.1 0.6 1.5 1.3 0.3 0.0 0.3 3.9 2.5 1.2 0.8 0.4 0.2 0.2 0.2 1.2 0.7 0.7 0.0 0.0 0.0 0.0 0.0 0.0
0.0 0.0 0.0 0.0 0.0 0.0 0.4 0.0 0.0 0.0 0.8 2.5 14.5 7.8 1.5 0.0 2.2 3.1 0.5 1.3 0.6 0.5 0.6 0.5 0.7 0.2 0.8 10.9 1.0 0.0 0.0 0.0 0.0 0.0 0.0 0.0 0.0 0.0 0.0 0.0 0.0 0.0 0.0 0.0
0.0 0.0 0.0 0.0 0.0 9.3 0.0 0.0 0.0 0.0 3.6 15.2 6.3 4.2 15.3 0.0 2.4 2.0 2.5 0.4 8.9 0.4 3.0 0.5 0.4 4.1 14.9 9.0 1.8 0.8 0.2 0.1 0.1 0.0 0.0 0.0 0.1 0.1 0.0 0.6 0.6 0.1 0.6 2.1
0.0 0.0 4.6 39.0 4.1 0.0 0.0 1.0 19.3 12.4 4.0 2.7 3.3 0.5 7.9 1.9 3.8 6.7 5.6 3.2 4.6 8.0 1.4 0.0 4.5 8.4 3.1 1.1 1.2 1.8 1.1 1.4 0.6 0.5 0.4 0.8 0.8 1.0 1.5 1.9 2.4 2.8 3.1 3.5
0.0 23.0 17.3 0.6 0.0 0.0 5.6 31.1 25.3 8.6 12.7 1.5 1.7 0.4 1.5 2.0 11.3 6.2 2.8 8.6 4.5 8.9 3.5 3.7 9.3 12.3 6.1 3.2 4.4 1.7 0.6 0.5 0.7 1.0 1.2 1.3 1.1 1.3 1.6 2.7 1.6 2.2 2.4 2.9
0.0 0.0 0.0 0.0 8.5 13.8 18.1 18.9 7.7 5.5 3.1 0.5 0.3 0.2 0.2 0.7 1.8 8.2 4.5 8.8 9.8 12.7 3.6 12.2 16.6 7.8 4.0 3.3 3.4 1.0 0.4 0.1 0.1 0.3 0.5 0.9 1.1 1.3 1.4 2.0 2.5 3.1 3.8 4.8
0.0 4.4 11.7 9.7 20.3 31.7 17.5 13.5 5.4 6.3 3.0 2.2 0.8 3.5 1.1 0.5 6.5 13.1 8.8 11.9 14.2 3.7 16.2 21.2 15.6 6.3 2.5 2.3 1.8 1.5 0.9 0.9 0.8 1.4 1.5 1.5 1.7 2.4 3.0 3.9 6.0 6.2 7.3 10.5
8.7 20.1 26.4 15.7 15.0 8.9 8.1 4.9 3.5 3.5 4.1 3.5 1.3 2.8 5.8 5.4 15.0 19.5 22.2 14.2 4.8 16.5 19.3 15.7 12.1 7.0 7.0 4.1 3.4 3.1 5.5 5.9 5.7 6.3 6.4 7.7 7.8 9.3 10.2 9.4 10.1 8.4 10.2 13.2
11.1 6.4 14.4 10.2 8.4 6.4 6.2 4.4 3.8 3.6 5.3 4.5 5.2 5.0 6.1 13.5 19.9 14.1 10.7 11.7 13.0 12.9 13.1 18.5 9.3 6.9 6.1 5.8 5.7 6.1 7.0 7.5 8.1 8.6 8.1 11.3 10.3 8.4 12.6 11.4 10.2 8.1 8.5 8.6
3.5 6.4 12.6 6.8 6.1 8.0 8.4 6.9 7.1 3.9 7.2 5.4 5.9 11.8 15.9 19.0 12.0 12.7 11.4 8.8 18.5 16.9 9.7 8.8 8.5 8.1 8.7 9.1 9.1 9.6 9.8 9.0 8.4 8.2 7.9 8.5 8.6 8.1 8.5 8.8 8.2 8.0 6.5 6.7
3.9 12.5 12.5 11.9 9.3 12.4 12.7 10.1 8.2 5.1 5.1 11.4 5.9 15.9 17.2 9.5 14.4 18.8 13.6 22.1 24.2 13.6 12.0 10.4 10.2 10.1 11.0 10.5 10.1 10.7 9.3 7.8 7.3 7.1 6.6 6.4 5.9 4.6 3.2 4.6 7.0 5.1 5.3 5.1

GFSNW_prec_kuchsnow_276.txt.gz
Snowfall_Accumulation
0.0 0.0 0.0 0.0 0.0 0.0 0.0 0.0 17.9 0.0 0.0 10.7 24.5 19.7 3.8 0.0 0.0 0.0 1.1 2.5 5.4 9.0 8.6 10.0 13.5 7.8 1.8 0.0 0.6 2.7 1.8 14.6 10.4 4.0 0.6 0.6 3.4 16.7 28.0 59.3 56.6 42.6 42.2 48.1
0.0 0.0 0.0 0.0 0.0 0.0 0.0 6.6 4.3 0.0 0.0 30.8 15.1 2.7 1.6 0.9 1.6 0.8 2.2 4.2 4.9 6.5 11.4 15.5 5.9 4.5 0.0 0.0 0.8 5.8 3.4 14.2 14.5 5.8 0.9 0.2 3.8 4.7 9.5 22.3 31.6 50.2 51.2 50.9
0.0 0.0 0.0 0.0 0.0 0.0 0.0 5.2 35.1 3.8 2.7 1.5 3.0 4.8 4.3 4.4 0.0 0.7 0.1 3.4 4.0 5.8 4.4 1.9 6.8 4.4 0.2 0.0 0.0 0.0 0.0 10.7 13.3 15.3 10.5 6.1 12.9 6.6 4.4 11.7 45.3 31.7 29.6 27.8
0.0 0.0 0.0 0.0 0.0 0.0 0.0 12.5 24.8 0.1 20.5 12.2 5.0 4.1 5.8 6.1 5.7 0.5 0.2 3.5 3.4 7.1 12.9 4.7 2.6 1.3 0.4 0.0 0.2 0.0 0.5 16.4 6.2 4.0 4.0 2.4 4.4 6.9 5.0 10.2 11.3 23.5 25.2 16.4
0.0 0.0 0.0 0.0 0.0 0.0 0.0 47.0 8.6 1.8 2.0 0.1 2.9 10.5 14.6 7.1 1.4 5.0 2.1 3.7 1.7 2.9 10.0 4.6 8.2 3.1 0.4 2.7 0.0 0.2 0.1 8.0 7.2 7.0 3.3 1.2 7.0 7.8 4.3 4.1 8.4 11.1 6.5 15.1
0.0 0.0 0.0 0.0 0.0 0.0 0.0 1.4 0.0 3.5 3.0 1.8 5.9 4.7 2.7 3.7 2.7 0.3 0.7 1.7 4.4 4.9 2.1 0.3 0.2 0.5 0.8 2.0 4.1 3.2 3.3 6.3 6.7 10.5 0.9 2.3 11.7 14.0 8.2 5.3 3.8 4.5 8.7 14.7
0.0 0.0 0.0 0.0 0.0 0.0 0.0 0.0 0.6 13.9 17.4 5.2 2.5 0.3 1.0 1.8 1.5 5.6 1.1 0.3 2.0 0.0 0.0 0.0 0.0 0.2 0.1 0.1 0.8 1.0 5.8 5.6 8.1 9.8 5.6 28.5 11.0 1.6 2.0 2.4 2.3 2.6 2.7 2.9
0.0 0.0 0.0 0.0 0.0 0.0 0.0 0.0 0.1 10.1 17.1 1.5 2.0 2.0 2.8 0.2 0.5 2.0 1.3 0.6 0.0 0.0 0.6 3.5 5.8 3.0 1.8 0.7 0.1 0.3 1.0 4.8 15.5 16.8 7.2 4.2 2.4 1.8 2.7 2.7 3.4 1.6 1.1 0.6
0.0 0.0 0.0 0.0 0.0 0.0 0.0 0.0 0.0 5.9 22.1 5.9 0.4 4.7 3.2 5.4 2.9 3.8 1.8 0.0 0.0 0.0 3.1 10.7 14.1 6.7 2.1 1.4 0.5 0.0 0.3 2.0 17.5 19.2 18.2 10.8 2.8 0.5 0.1 0.6 6.8 0.8 0.2 0.3
0.0 0.0 0.0 0.0 0.0 0.0 0.0 0.0 0.0 2.4 24.8 0.2 0.4 2.3 4.2 2.0 2.2 3.5 0.8 0.4 0.1 0.5 8.4 14.2 12.0 7.6 3.3 7.2 4.3 2.8 7.0 11.4 27.7 23.2 30.4 8.7 1.5 0.6 0.2 9.4 9.8 0.8 0.1 0.1
0.0 0.0 0.0 0.0 0.0 0.0 0.0 0.0 0.0 0.0 10.5 0.4 0.0 0.0 0.2 0.3 0.5 5.1 1.9 6.5 4.4 8.7 19.1 16.6 11.5 10.2 7.4 5.1 1.7 5.5 9.8 15.3 14.0 16.9 29.3 25.4 1.2 1.0 4.0 4.6 0.5 0.5 0.2 0.1
0.0 0.0 0.0 0.0 0.0 0.0 0.0 2.1 0.0 0.0 1.5 0.0 0.0 0.0 0.0 0.0 0.0 0.4 2.0 5.5 6.3 9.1 19.6 13.5 5.8 7.1 7.8 4.9 13.5 0.9 9.3 4.9 9.9 9.6 17.7 6.1 3.9 3.7 1.0 0.4 1.2 1.0 0.3 0.1
0.0 0.0 0.0 0.0 0.0 0.0 0.0 0.7 0.0 0.0 6.7 0.1 0.0 0.0 0.0 0.0 0.0 0.0 2.5 0.9 1.1 3.7 3.0 7.0 6.6 8.9 3.0 7.4 4.1 2.7 2.1 0.3 5.4 8.3 5.8 2.5 4.2 1.9 0.4 0.4 1.9 1.2 0.3 0.7
0.0 0.0 0.0 0.0 0.0 0.0 0.0 0.0 0.0 0.0 1.3 10.4 0.9 0.0 0.0 0.0 0.0 0.0 0.0 0.0 0.0 0.0 0.0 4.7 5.3 3.4 0.0 1.4 1.2 0.3 1.4 1.6 3.6 7.1 4.3 2.2 1.7 2.0 1.3 1.1 0.7 0.5 0.2 0.2
0.0 0.0 0.0 0.0 0.0 0.0 0.0 0.0 0.0 0.0 0.8 13.9 3.6 0.0 0.0 0.0 0.0 0.0 0.0 0.0 0.0 0.0 2.5 4.7 2.8 0.3 0.8 0.2 1.0 2.2 0.7 2.6 7.7 10.2 6.5 6.1 5.6 4.0 3.0 3.3 2.3 1.0 0.8 1.0
0.0 0.0 0.0 0.0 0.0 0.0 0.0 28.5 0.0 0.0 0.0 8.1 9.4 0.0 0.0 0.0 0.0 0.0 0.0 0.0 0.0 0.1 0.9 1.9 0.3 0.0 0.3 3.0 5.0 3.5 3.2 1.7 1.6 3.6 3.7 7.1 7.3 4.4 2.3 2.3 1.0 0.1 0.0 0.0
0.0 0.0 0.0 0.0 0.0 0.0 1.6 6.1 0.1 0.0 0.0 10.7 11.5 3.2 0.0 0.0 0.0 0.0 0.0 0.0 0.1 0.6 1.5 1.3 0.3 0.0 0.3 3.9 2.5 1.2 0.8 0.4 0.2 0.2 0.2 1.2 0.7 0.7 0.0 0.0 0.0 0.0 0.0 0.0
0.0 0.0 0.0 0.0 0.0 0.0 0.4 0.0 0.0 0.0 0.8 2.5 14.5 7.8 1.5 0.0 2.2 3.1 0.5 1.3 0.6 0.5 0.6 0.5 0.7 0.2 0.8 10.9 1.0 0.0 0.0 0.0 0.0 0.0 0.0 0.0 0.0 0.0 0.0 0.0 0.0 0.0 0.0 0.0
0.0 0.0 0.0 0.0 0.0 9.3 0.0 0.0 0.0 0.0 3.6 15.2 6.3 4.2 15.3 0.0 2.4 2.0 2.5 0.4 8.9 0.4 3.0 0.5 0.4 4.1 14.9 9.0 1.8 0.8 0.2 0.1 0.1 0.0 0.0 0.0 0.1 0.1 0.0 0.6 0.6 0.1 0.6 2.1
0.0 0.0 4.6 39.0 4.1 0.0 0.0 1.0 19.3 12.4 4.0 2.7 3.3 0.5 7.9 1.9 3.8 6.7 5.6 3.2 4.6 8.0 1.4 0.0 4.5 8.4 3.1 1.1 1.2 1.8 1.1 1.4 0.6 0.5 0.4 0.8 0.8 1.0 1.5 1.9 2.4 2.8 3.1 3.5
0.0 23.0 17.3 0.6 0.0 0.0 5.6 31.1 25.3 8.6 12.7 1.5 1.7 0.4 1.5 2.0 11.3 6.2 2.8 8.6 4.5 8.9 3.5 3.7 9.3 12.3 6.1 3.2 4.4 1.7 0.6 0.5 0.7 1.0 1.2 1.3 1.1 1.3 1.6 2.7 1.6 2.2 2.4 2.9
0.0 0.0 0.0 0.0 8.5 13.8 20.3 21.2 8.7 5.5 3.1 0.5 0.3 0.2 0.2 0.7 1.8 8.2 4.5 8.8 9.8 12.7 3.6 12.2 16.6 7.8 4.0 3.3 3.4 1.0 0.4 0.1 0.1 0.3 0.5 0.9 1.1 1.3 1.4 2.0 2.5 3.1 3.8 4.8
0.0 4.4 11.7 9.7 23.1 34.9 19.6 15.0 5.7 6.3 3.0 2.2 0.8 3.5 1.1 0.5 6.5 13.1 8.8 11.9 14.2 3.7 16.2 21.2 15.6 6.3 2.5 2.3 1.8 1.5 0.9 0.9 0.8 1.4 1.5 1.5 1.7 2.4 3.0 3.9 6.0 6.2 7.3 10.5
8.7 20.1 28.0 17.6 16.5 8.9 8.1 4.9 3.5 3.5 4.1 3.5 1.3 2.8 5.8 5.4 15.0 19.5 22.2 14.2 4.8 16.5 19.3 15.7 12.1 7.0 7.0 4.1 3.4 3.1 5.5 5.9 5.7 6.3 6.4 7.7 7.8 9.3 10.2 9.4 10.1 8.4 10.2 13.2
11.1 6.4 14.4 10.2 8.4 6.4 6.2 4.4 3.8 3.6 5.3 4.5 5.2 5.0 6.1 13.5 19.9 14.1 10.7 11.7 13.0 12.9 13.1 18.5 9.3 6.9 6.1 5.8 5.7 6.1 7.0 7.5 8.1 8.6 8.1 11.3 10.3 8.4 12.6 11.4 10.2 8.1 8.5 8.6
3.5 6.4 12.6 6.8 6.1 8.0 8.4 6.9 7.1 3.9 7.2 5.4 5.9 11.8 15.9 19.0 12.0 12.7 11.4 8.8 18.5 16.9 9.7 8.8 8.5 8.1 8.7 9.1 9.1 9.6 9.8 9.0 8.4 8.2 7.9 8.5 8.6 8.1 8.5 8.8 8.2 8.0 6.5 6.7
3.9 12.5 12.5 11.9 9.3 12.4 12.7 10.1 8.2 5.1 5.1 11.4 5.9 15.9 17.2 9.5 14.4 18.8 13.6 22.1 24.2 13.6 12.0 10.4 10.2 10.1 11.0 10.5 10.1 10.7 9.3 7.8 7.3 7.1 6.6 6.4 5.9 4.6 3.2 4.6 7.0 5.1 5.3 5.1

GFSNW_prec_kuchsnow_279.txt.gz
Snowfall_Accumulation
0.0 0.0 0.0 0.0 0.0 0.0 0.0 0.0 17.9 0.0 0.0 10.7 24.5 19.7 3.8 0.0 0.0 0.0 1.1 2.5 5.4 9.0 8.6 10.0 13.5 7.8 1.8 0.0 0.6 2.7 1.8 14.6 10.4 4.0 0.6 0.6 3.4 16.7 28.0 59.3 56.6 42.6 42.2 48.1
0.0 0.0 0.0 0.0 0.0 0.0 0.0 6.6 4.3 0.0 0.0 30.8 15.1 2.7 1.6 0.9 1.6 0.8 2.2 4.2 4.9 6.5 11.4 15.5 5.9 4.5 0.0 0.0 0.8 5.8 3.4 14.2 14.5 5.8 0.9 0.2 3.8 4.7 9.5 22.3 31.6 50.2 51.2 50.9
0.0 0.0 0.0 0.0 0.0 0.0 0.0 5.2 35.1 3.8 2.7 1.5 3.0 4.8 4.3 4.4 0.0 0.7 0.1 3.4 4.0 5.8 4.4 1.9 6.8 4.4 0.2 0.0 0.0 0.0 0.0 10.7 13.3 15.3 10.5 6.1 12.9 6.6 4.4 11.7 45.3 31.7 29.6 27.8
0.0 0.0 0.0 0.0 0.0 0.0 0.0 12.5 24.8 0.1 21.5 12.2 5.0 4.1 5.8 6.1 5.7 0.5 0.2 3.5 3.4 7.1 12.9 4.7 2.6 1.3 0.4 0.0 0.2 0.0 0.5 16.4 6.2 4.0 4.0 2.4 4.4 6.9 5.0 10.2 11.3 23.5 25.2 16.4
0.0 0.0 0.0 0.0 0.0 0.0 0.0 47.0 8.6 1.8 2.0 0.1 2.9 10.5 14.6 7.1 1.4 5.0 2.1 3.7 1.7 2.9 10.0 4.6 8.2 3.1 0.4 2.7 0.0 0.2 0.1 8.0 7.2 7.0 3.3 1.2 7.0 7.8 4.3 4.1 8.4 11.1 6.5 15.1
0.0 0.0 0.0 0.0 0.0 0.0 0.0 1.4 0.0 3.5 3.0 1.8 5.9 4.7 2.7 3.7 2.7 0.3 0.7 1.7 4.4 4.9 2.1 0.3 0.2 0.5 0.8 2.0 4.1 3.2 3.3 6.3 6.7 10.5 0.9 2.3 11.7 14.0 8.2 5.3 3.8 4.5 8.7 14.7
0.0 0.0 0.0 0.0 0.0 0.0 0.0 0.0 0.6 13.9 17.4 5.2 2.5 0.3 1.0 1.8 1.5 5.6 1.1 0.3 2.0 0.0 0.0 0.0 0.0 0.2 0.1 0.1 0.8 1.0 5.8 5.6 8.1 9.8 5.6 28.5 11.0 1.6 2.0 2.4 2.3 2.6 2.7 2.9
0.0 0.0 0.0 0.0 0.0 0.0 0.0 0.0 0.1 10.1 17.1 1.5 2.0 2.0 2.8 0.2 0.5 2.0 1.3 0.6 0.0 0.0 0.6 3.5 5.8 3.0 1.8 0.7 0.1 0.3 1.0 4.8 15.5 16.8 7.2 4.2 2.4 1.8 2.7 2.7 3.4 1.6 1.1 0.6
0.0 0.0 0.0 0.0 0.0 0.0 0.0 0.0 0.0 5.9 22.1 5.9 0.4 4.7 3.2 5.4 2.9 3.8 1.8 0.0 0.0 0.0 3.1 10.7 14.1 6.7 2.1 1.4 0.5 0.0 0.3 2.0 17.5 19.2 18.2 10.8 2.8 0.5 0.1 0.6 6.8 0.8 0.2 0.3
0.0 0.0 0.0 0.0 0.0 0.0 0.0 0.0 0.0 2.4 24.8 0.2 0.4 2.3 4.2 2.0 2.2 3.5 0.8 0.4 0.1 0.5 8.4 14.2 12.0 7.6 3.3 7.2 4.3 2.8 7.0 11.4 27.7 23.2 30.4 8.7 1.5 0.6 0.2 9.4 9.8 0.8 0.1 0.1
0.0 0.0 0.0 0.0 0.0 0.0 0.0 0.0 0.0 0.0 10.5 0.4 0.0 0.0 0.2 0.3 0.5 5.1 1.9 6.5 4.4 8.7 19.1 16.6 11.5 10.2 7.4 5.1 1.7 5.5 9.8 15.3 14.0 16.9 29.3 25.4 1.2 1.0 4.0 4.6 0.5 0.5 0.2 0.1
0.0 0.0 0.0 0.0 0.0 0.0 0.0 2.1 0.0 0.0 1.5 0.0 0.0 0.0 0.0 0.0 0.0 0.4 2.0 5.5 6.3 9.1 19.6 13.5 5.8 7.1 7.8 4.9 13.5 0.9 9.3 4.9 9.9 9.6 17.7 6.1 3.9 3.7 1.0 0.4 1.2 1.0 0.3 0.1
0.0 0.0 0.0 0.0 0.0 0.0 0.0 0.7 0.0 0.0 6.7 0.1 0.0 0.0 0.0 0.0 0.0 0.0 2.5 0.9 1.1 3.7 3.0 7.0 6.6 8.9 3.0 7.4 4.1 2.7 2.1 0.3 5.4 8.3 5.8 2.5 4.2 1.9 0.4 0.4 1.9 1.2 0.3 0.7
0.0 0.0 0.0 0.0 0.0 0.0 0.0 0.0 0.0 0.0 1.3 11.1 0.9 0.0 0.0 0.0 0.0 0.0 0.0 0.0 0.0 0.0 0.0 4.7 5.3 3.4 0.0 1.4 1.2 0.3 1.4 1.6 3.6 7.1 4.3 2.2 1.7 2.0 1.3 1.1 0.7 0.5 0.2 0.2
0.0 0.0 0.0 0.0 0.0 0.0 0.0 0.0 0.0 0.0 0.8 13.9 3.6 0.0 0.0 0.0 0.0 0.0 0.0 0.0 0.0 0.0 2.5 4.7 2.8 0.3 0.8 0.2 1.0 2.2 0.7 2.6 7.7 10.2 6.5 6.1 5.6 4.0 3.0 3.3 2.3 1.0 0.8 1.0
0.0 0.0 0.0 0.0 0.0 0.0 0.0 28.5 0.0 0.0 0.0 8.1 9.4 0.0 0.0 0.0 0.0 0.0 0.0 0.0 0.0 0.1 0.9 1.9 0.3 0.0 0.3 3.0 5.0 3.5 3.2 1.7 1.6 3.6 3.7 7.1 7.3 4.4 2.3 2.3 1.0 0.1 0.0 0.0
0.0 0.0 0.0 0.0 0.0 0.0 1.6 6.1 0.1 0.0 0.0 10.7 13.5 3.2 0.0 0.0 0.0 0.0 0.0 0.0 0.1 0.6 1.5 1.3 0.3 0.0 0.3 3.9 2.5 1.2 0.8 0.4 0.2 0.2 0.2 1.2 0.7 0.7 0.0 0.0 0.0 0.0 0.0 0.0
0.0 0.0 0.0 0.0 0.0 0.0 0.4 0.0 0.0 0.0 0.8 2.5 17.2 7.8 1.5 0.0 2.2 3.1 0.5 1.3 0.6 0.5 0.6 0.5 0.7 0.2 0.8 10.9 1.0 0.0 0.0 0.0 0.0 0.0 0.0 0.0 0.0 0.0 0.0 0.0 0.0 0.0 0.0 0.0
0.0 0.0 0.0 0.0 0.0 9.3 0.0 0.0 0.0 0.0 3.6 15.2 6.3 4.9 16.2 0.0 2.4 2.0 2.5 0.4 8.9 0.4 3.0 0.5 0.4 4.1 14.9 9.0 1.8 0.8 0.2 0.1 0.1 0.0 0.0 0.0 0.1 0.1 0.0 0.6 0.6 0.1 0.6 2.1
0.0 0.0 4.6 42.6 4.1 0.0 0.0 1.0 19.3 12.4 4.0 2.7 3.3 0.5 7.9 1.9 3.8 6.7 5.6 3.2 4.6 8.0 1.4 0.0 4.5 8.4 3.1 1.1 1.2 1.8 1.1 1.4 0.6 0.5 0.4 0.8 0.8 1.0 1.5 1.9 2.4 2.8 3.1 3.5
0.0 23.0 19.1 0.6 0.0 0.0 5.6 36.2 29.1 8.6 12.7 1.5 1.7 0.4 1.5 2.0 11.3 6.2 2.8 8.6 4.5 8.9 3.5 3.7 9.3 12.3 6.1 3.2 4.4 1.7 0.6 0.5 0.7 1.0 1.2 1.3 1.1 1.3 1.6 2.7 1.6 2.2 2.4 2.9
0.0 0.0 0.0 0.0 8.5 17.7 24.5 24.6 10.9 5.5 3.1 0.5 0.3 0.2 0.2 0.7 1.8 8.2 4.5 8.8 9.8 12.7 3.6 12.2 16.6 7.8 4.0 3.3 3.4 1.0 0.4 0.1 0.1 0.3 0.5 0.9 1.1 1.3 1.4 2.0 2.5 3.1 3.8 4.8
0.0 4.4 13.4 9.7 27.0 39.3 22.3 17.2 6.5 6.4 3.0 2.2 0.8 3.5 1.1 0.5 6.5 13.1 8.8 11.9 14.2 3.7 16.2 21.2 15.6 6.3 2.5 2.3 1.8 1.5 0.9 0.9 0.8 1.4 1.5 1.5 1.7 2.4 3.0 3.9 6.0 6.2 7.3 10.5
8.7 22.4 30.7 20.0 18.4 9.7 8.1 4.9 3.5 3.5 4.1 3.5 1.3 2.8 5.8 5.4 15.0 19.5 22.2 14.2 4.8 16.5 19.3 15.7 12.1 7.0 7.0 4.1 3.4 3.1 5.5 5.9 5.7 6.3 6.4 7.7 7.8 9.3 10.2 9.4 10.1 8.4 10.2 13.2
11.1 6.4 14.8 11.0 8.4 6.4 6.2 4.4 3.8 3.6 5.3 4.5 5.2 5.0 6.1 13.5 19.9 14.1 10.7 11.7 13.0 12.9 13.1 18.5 9.3 6.9 6.1 5.8 5.7 6.1 7.0 7.5 8.1 8.6 8.1 11.3 10.3 8.4 12.6 11.4 10.2 8.1 8.5 8.6
3.5 6.4 12.6 6.8 6.1 8.0 8.4 6.9 7.1 3.9 7.2 5.4 5.9 11.8 15.9 19.0 12.0 12.7 11.4 8.8 18.5 16.9 9.7 8.8 8.5 8.1 8.7 9.1 9.1 9.6 9.8 9.0 8.4 8.2 7.9 8.5 8.6 8.1 8.5 8.8 8.2 8.0 6.5 6.7
3.9 12.5 12.5 11.9 9.3 12.4 12.7 10.1 8.2 5.1 5.1 11.4 5.9 15.9 17.2 9.5 14.4 18.8 13.6 22.1 24.2 13.6 12.0 10.4 10.2 10.1 11.0 10.5 10.1 10.7 9.3 7.8 7.3 7.1 6.6 6.4 5.9 4.6 3.2 4.6 7.0 5.1 5.3 5.1

GFSNW_prec_kuchsnow_282.txt.gz
Snowfall_Accumulation
0.0 0.0 0.0 0.0 0.0 0.0 0.0 0.0 17.9 0.0 0.0 10.7 24.5 19.7 3.8 0.0 0.0 0.0 1.1 2.5 5.4 9.0 8.6 10.0 13.5 7.8 1.8 0.0 0.6 2.7 1.8 14.6 10.4 4.0 0.6 0.6 3.4 16.7 28.0 59.3 56.6 42.6 42.2 48.1
0.0 0.0 0.0 0.0 0.0 0.0 0.0 6.6 4.3 0.0 0.0 35.7 17.5 2.7 1.6 0.9 1.6 0.8 2.2 4.2 4.9 6.5 11.4 15.5 5.9 4.5 0.0 0.0 0.8 5.8 3.4 14.2 14.5 5.8 0.9 0.2 3.8 4.7 9.5 22.3 31.6 50.2 51.2 50.9
0.0 0.0 0.0 0.0 0.0 0.0 0.0 5.2 35.1 3.8 2.7 1.5 3.0 4.8 4.3 4.4 0.0 0.7 0.1 3.4 4.0 5.8 4.4 1.9 6.8 4.4 0.2 0.0 0.0 0.0 0.0 10.7 13.3 15.3 10.5 6.1 12.9 6.6 4.4 11.7 45.3 31.7 29.6 27.8
0.0 0.0 0.0 0.0 0.0 0.0 0.0 12.5 24.8 0.1 21.5 12.2 5.0 4.1 5.8 6.1 5.7 0.5 0.2 3.5 3.4 7.1 12.9 4.7 2.6 1.3 0.4 0.0 0.2 0.0 0.5 16.4 6.2 4.0 4.0 2.4 4.4 6.9 5.0 10.2 11.3 23.5 25.2 16.4
0.0 0.0 0.0 0.0 0.0 0.0 0.0 47.0 8.6 1.8 2.0 0.1 2.9 10.5 14.6 7.1 1.4 5.0 2.1 3.7 1.7 2.9 10.0 4.6 8.2 3.1 0.4 2.7 0.0 0.2 0.1 8.0 7.2 7.0 3.3 1.2 7.0 7.8 4.3 4.1 8.4 11.1 6.5 15.1
0.0 0.0 0.0 0.0 0.0 0.0 0.0 1.4 0.0 3.5 3.0 1.8 5.9 4.7 2.7 3.7 2.7 0.3 0.7 1.7 4.4 4.9 2.1 0.3 0.2 0.5 0.8 2.0 4.1 3.2 3.3 6.3 6.7 10.5 0.9 2.3 11.7 14.0 8.2 5.3 3.8 4.5 8.7 14.7
0.0 0.0 0.0 0.0 0.0 0.0 0.0 0.0 0.6 13.9 17.4 5.2 2.5 0.3 1.0 1.8 1.5 5.6 1.1 0.3 2.0 0.0 0.0 0.0 0.0 0.2 0.1 0.1 0.8 1.0 5.8 5.6 8.1 9.8 5.6 28.5 11.0 1.6 2.0 2.4 2.3 2.6 2.7 2.9
0.0 0.0 0.0 0.0 0.0 0.0 0.0 0.0 0.1 10.1 17.1 1.5 2.0 2.0 2.8 0.2 0.5 2.0 1.3 0.6 0.0 0.0 0.6 3.5 5.8 3.0 1.8 0.7 0.1 0.3 1.0 4.8 15.5 16.8 7.2 4.2 2.4 1.8 2.7 2.7 3.4 1.6 1.1 0.6
0.0 0.0 0.0 0.0 0.0 0.0 0.0 0.0 0.0 5.9 22.1 5.9 0.4 4.7 3.2 5.4 2.9 3.8 1.8 0.0 0.0 0.0 3.1 10.7 14.1 6.7 2.1 1.4 0.5 0.0 0.3 2.0 17.5 19.2 18.2 10.8 2.8 0.5 0.1 0.6 6.8 0.8 0.2 0.3
0.0 0.0 0.0 0.0 0.0 0.0 0.0 0.0 0.0 2.4 24.8 0.2 0.4 2.3 4.2 2.0 2.2 3.5 0.8 0.4 0.1 0.5 8.4 14.2 12.0 7.6 3.3 7.2 4.3 2.8 7.0 11.4 27.7 23.2 30.4 8.7 1.5 0.6 0.2 9.4 9.8 0.8 0.1 0.1
0.0 0.0 0.0 0.0 0.0 0.0 0.0 0.0 0.0 0.0 10.5 0.4 0.0 0.0 0.2 0.3 0.5 5.1 1.9 6.5 4.4 8.7 19.1 16.6 11.5 10.2 7.4 5.1 1.7 5.5 9.8 15.3 14.0 16.9 29.3 25.4 1.2 1.0 4.0 4.6 0.5 0.5 0.2 0.1
0.0 0.0 0.0 0.0 0.0 0.0 0.0 2.1 0.0 0.0 1.5 0.0 0.0 0.0 0.0 0.0 0.0 0.4 2.0 5.5 6.3 9.1 19.6 13.5 5.8 7.1 7.8 4.9 13.5 0.9 9.3 4.9 9.9 9.6 17.7 6.1 3.9 3.7 1.0 0.4 1.2 1.0 0.3 0.1
0.0 0.0 0.0 0.0 0.0 0.0 0.0 0.7 0.0 0.0 6.7 0.1 0.0 0.0 0.0 0.0 0.0 0.0 2.5 0.9 1.1 3.7 3.0 7.0 6.6 8.9 3.0 7.4 4.1 2.7 2.1 0.3 5.4 8.3 5.8 2.5 4.2 1.9 0.4 0.4 1.9 1.2 0.3 0.7
0.0 0.0 0.0 0.0 0.0 0.0 0.0 0.0 0.0 0.0 1.3 11.1 0.9 0.0 0.0 0.0 0.0 0.0 0.0 0.0 0.0 0.0 0.0 4.7 5.3 3.4 0.0 1.4 1.2 0.3 1.4 1.6 3.6 7.1 4.3 2.2 1.7 2.0 1.3 1.1 0.7 0.5 0.2 0.2
0.0 0.0 0.0 0.0 0.0 0.0 0.0 0.0 0.0 0.0 0.8 13.9 3.6 0.0 0.0 0.0 0.0 0.0 0.0 0.0 0.0 0.0 2.5 4.7 2.8 0.3 0.8 0.2 1.0 2.2 0.7 2.6 7.7 10.2 6.5 6.1 5.6 4.0 3.0 3.3 2.3 1.0 0.8 1.0
0.0 0.0 0.0 0.0 0.0 0.0 0.0 28.5 0.0 0.0 0.0 8.1 9.4 0.0 0.0 0.0 0.0 0.0 0.0 0.0 0.0 0.1 0.9 1.9 0.3 0.0 0.3 3.0 5.0 3.5 3.2 1.7 1.6 3.6 3.7 7.1 7.3 4.4 2.3 2.3 1.0 0.1 0.0 0.0
0.0 0.0 0.0 0.0 0.0 0.0 1.6 6.1 0.1 0.0 0.0 10.7 13.5 3.2 0.0 0.0 0.0 0.0 0.0 0.0 0.1 0.6 1.5 1.3 0.3 0.0 0.3 3.9 2.5 1.2 0.8 0.4 0.2 0.2 0.2 1.2 0.7 0.7 0.0 0.0 0.0 0.0 0.0 0.0
0.0 0.0 0.0 0.0 0.0 0.0 0.4 0.0 0.0 0.0 0.8 2.5 18.1 7.8 1.5 0.0 2.2 3.1 0.5 1.3 0.6 0.5 0.6 0.5 0.7 0.2 0.8 10.9 1.0 0.0 0.0 0.0 0.0 0.0 0.0 0.0 0.0 0.0 0.0 0.0 0.0 0.0 0.0 0.0
0.0 0.0 0.0 0.0 0.0 9.3 0.0 0.0 0.0 0.0 3.6 15.2 6.3 4.9 17.9 0.0 2.4 2.0 2.5 0.4 8.9 0.4 3.0 0.5 0.4 4.1 14.9 9.0 1.8 0.8 0.2 0.1 0.1 0.0 0.0 0.0 0.1 0.1 0.0 0.6 0.6 0.1 0.6 2.1
0.0 0.0 4.6 45.4 4.1 0.0 0.0 1.0 19.3 12.4 4.0 2.7 3.3 0.5 7.9 1.9 3.8 6.7 5.6 3.2 4.6 8.0 1.4 0.0 4.5 8.4 3.1 1.1 1.2 1.8 1.1 1.4 0.6 0.5 0.4 0.8 0.8 1.0 1.5 1.9 2.4 2.8 3.1 3.5
0.0 23.0 21.8 0.6 0.0 0.0 5.6 40.0 29.1 10.9 14.7 1.5 1.7 0.4 1.5 2.0 11.3 6.2 2.8 8.6 4.5 8.9 3.5 3.7 9.3 12.3 6.1 3.2 4.4 1.7 0.6 0.5 0.7 1.0 1.2 1.3 1.1 1.3 1.6 2.7 1.6 2.2 2.4 2.9
0.0 0.0 0.0 0.0 8.5 20.2 28.4 27.5 13.3 5.5 3.1 0.5 0.3 0.2 0.2 0.7 1.8 8.2 4.5 8.8 9.8 12.7 3.6 12.2 16.6 7.8 4.0 3.3 3.4 1.0 0.4 0.1 0.1 0.3 0.5 0.9 1.1 1.3 1.4 2.0 2.5 3.1 3.8 4.8
0.0 4.4 14.6 10.5 28.8 42.8 24.9 17.2 8.4 7.6 3.0 2.2 0.8 3.5 1.1 0.5 6.5 13.1 8.8 11.9 14.2 3.7 16.2 21.2 15.6 6.3 2.5 2.3 1.8 1.5 0.9 0.9 0.8 1.4 1.5 1.5 1.7 2.4 3.0 3.9 6.0 6.2 7.3 10.5
8.7 23.6 32.4 20.0 18.4 9.7 8.1 4.9 3.5 3.5 4.1 3.5 1.3 2.8 5.8 5.4 15.0 19.5 22.2 14.2 4.8 16.5 19.3 15.7 12.1 7.0 7.0 4.1 3.4 3.1 5.5 5.9 5.7 6.3 6.4 7.7 7.8 9.3 10.2 9.4 10.1 8.4 10.2 13.2
11.1 6.4 15.0 11.0 8.4 6.4 6.2 4.4 3.8 3.6 5.3 4.5 5.2 5.0 6.1 13.5 19.9 14.1 10.7 11.7 13.0 12.9 13.1 18.5 9.3 6.9 6.1 5.8 5.7 6.1 7.0 7.5 8.1 8.6 8.1 11.3 10.3 8.4 12.6 11.4 10.2 8.1 8.5 8.6
3.5 7.0 12.6 6.8 6.1 8.0 8.4 6.9 7.1 3.9 7.2 5.4 5.9 11.8 15.9 19.0 12.0 12.7 11.4 8.8 18.5 16.9 9.7 8.8 8.5 8.1 8.7 9.1 9.1 9.6 9.8 9.0 8.4 8.2 7.9 8.5 8.6 8.1 8.5 8.8 8.2 8.0 6.5 6.7
4.5 12.5 12.5 11.9 9.3 12.4 12.7 10.1 8.2 5.1 5.1 11.4 5.9 15.9 17.2 9.5 14.4 18.8 13.6 22.1 24.2 13.6 12.0 10.4 10.2 10.1 11.0 10.5 10.1 10.7 9.3 7.8 7.3 7.1 6.6 6.4 5.9 4.6 3.2 4.6 7.0 5.1 5.3 5.1

GFSNW_prec_kuchsnow_285.txt.gz
Snowfall_Accumulation
0.0 0.0 0.0 0.0 0.0 0.0 0.0 0.0 17.9 0.0 0.0 11.6 27.6 21.3 3.8 0.0 0.0 0.0 1.1 2.5 5.4 9.0 8.6 10.0 13.5 7.8 1.8 0.0 0.6 2.7 1.8 14.6 10.4 4.0 0.6 0.6 3.4 16.7 28.0 59.3 56.6 42.6 42.2 48.1
0.0 0.0 0.0 0.0 0.0 0.0 0.0 6.6 4.3 0.0 0.0 37.0 19.8 2.7 1.6 0.9 1.6 0.8 2.2 4.2 4.9 6.5 11.4 15.5 5.9 4.5 0.0 0.0 0.8 5.8 3.4 14.2 14.5 5.8 0.9 0.2 3.8 4.7 9.5 22.3 31.6 50.2 51.2 50.9
0.0 0.0 0.0 0.0 0.0 0.0 0.0 5.2 35.1 3.8 2.7 1.5 3.0 5.2 4.3 4.4 0.0 0.7 0.1 3.4 4.0 5.8 4.4 1.9 6.8 4.4 0.2 0.0 0.0 0.0 0.0 10.7 13.3 15.3 10.5 6.1 12.9 6.6 4.4 11.7 45.3 31.7 29.6 27.8
0.0 0.0 0.0 0.0 0.0 0.0 0.0 12.5 24.8 0.1 21.5 12.2 5.0 4.1 5.8 6.1 5.7 0.5 0.2 3.5 3.4 7.1 12.9 4.7 2.6 1.3 0.4 0.0 0.2 0.0 0.5 16.4 6.2 4.0 4.0 2.4 4.4 6.9 5.0 10.2 11.3 23.5 25.2 16.4
0.0 0.0 0.0 0.0 0.0 0.0 0.0 47.0 8.6 1.8 2.0 0.1 2.9 10.5 14.6 7.1 1.4 5.0 2.1 3.7 1.7 2.9 10.0 4.6 8.2 3.1 0.4 2.7 0.0 0.2 0.1 8.0 7.2 7.0 3.3 1.2 7.0 7.8 4.3 4.1 8.4 11.1 6.5 15.1
0.0 0.0 0.0 0.0 0.0 0.0 0.0 1.4 0.0 3.5 3.0 1.8 5.9 4.7 2.7 3.7 2.7 0.3 0.7 1.7 4.4 4.9 2.1 0.3 0.2 0.5 0.8 2.0 4.1 3.2 3.3 6.3 6.7 10.5 0.9 2.3 11.7 14.0 8.2 5.3 3.8 4.5 8.7 14.7
0.0 0.0 0.0 0.0 0.0 0.0 0.0 0.0 0.6 13.9 17.4 5.2 2.5 0.3 1.0 1.8 1.5 5.6 1.1 0.3 2.0 0.0 0.0 0.0 0.0 0.2 0.1 0.1 0.8 1.0 5.8 5.6 8.1 9.8 5.6 28.5 11.0 1.6 2.0 2.4 2.3 2.6 2.7 2.9
0.0 0.0 0.0 0.0 0.0 0.0 0.0 0.0 0.1 10.1 17.1 1.5 2.0 2.0 2.8 0.2 0.5 2.0 1.3 0.6 0.0 0.0 0.6 3.5 5.8 3.0 1.8 0.7 0.1 0.3 1.0 4.8 15.5 16.8 7.2 4.2 2.4 1.8 2.7 2.7 3.4 1.6 1.1 0.6
0.0 0.0 0.0 0.0 0.0 0.0 0.0 0.0 0.0 5.9 22.1 5.9 0.4 4.7 3.2 5.4 2.9 3.8 1.8 0.0 0.0 0.0 3.1 10.7 14.1 6.7 2.1 1.4 0.5 0.0 0.3 2.0 17.5 19.2 18.2 10.8 2.8 0.5 0.1 0.6 6.8 0.8 0.2 0.3
0.0 0.0 0.0 0.0 0.0 0.0 0.0 0.0 0.0 2.4 24.8 0.2 0.4 2.3 4.2 2.0 2.2 3.5 0.8 0.4 0.1 0.5 8.4 14.2 12.0 7.6 3.3 7.2 4.3 2.8 7.0 11.4 27.7 23.2 30.4 8.7 1.5 0.6 0.2 9.4 9.8 0.8 0.1 0.1
0.0 0.0 0.0 0.0 0.0 0.0 0.0 0.0 0.0 0.0 10.5 0.4 0.0 0.0 0.5 0.3 0.5 5.1 1.9 6.5 4.4 8.7 19.1 16.6 11.5 10.2 7.4 5.1 1.7 5.5 9.8 15.3 14.0 16.9 29.3 25.4 1.2 1.0 4.0 4.6 0.5 0.5 0.2 0.1
0.0 0.0 0.0 0.0 0.0 0.0 0.0 2.1 0.0 0.0 1.5 0.0 0.0 0.0 0.0 0.0 0.0 0.4 2.0 5.5 6.3 9.1 19.6 13.5 5.8 7.1 7.8 4.9 13.5 0.9 9.3 4.9 9.9 9.6 17.7 6.1 3.9 3.7 1.0 0.4 1.2 1.0 0.3 0.1
0.0 0.0 0.0 0.0 0.0 0.0 0.0 0.7 0.0 0.0 6.7 0.1 0.0 0.0 0.0 0.0 0.0 0.0 2.5 0.9 1.1 3.7 3.0 7.0 6.6 8.9 3.0 7.4 4.1 2.7 2.1 0.3 5.4 8.3 5.8 2.5 4.2 1.9 0.4 0.4 1.9 1.2 0.3 0.7
0.0 0.0 0.0 0.0 0.0 0.0 0.0 0.0 0.0 0.0 1.3 11.1 0.9 0.0 0.0 0.0 0.0 0.0 0.0 0.0 0.0 0.0 0.0 4.7 5.3 3.4 0.0 1.4 1.2 0.3 1.4 1.6 3.6 7.1 4.3 2.2 1.7 2.0 1.3 1.1 0.7 0.5 0.2 0.2
0.0 0.0 0.0 0.0 0.0 0.0 0.0 0.0 0.0 0.0 0.8 13.9 3.6 0.0 0.0 0.0 0.0 0.0 0.0 0.0 0.0 0.0 2.5 4.7 2.8 0.3 0.8 0.2 1.0 2.2 0.7 2.6 7.7 10.2 6.5 6.1 5.6 4.0 3.0 3.3 2.3 1.0 0.8 1.0
0.0 0.0 0.0 0.0 0.0 0.0 0.0 28.5 0.0 0.0 0.0 8.1 9.4 0.0 0.0 0.0 0.0 0.0 0.0 0.0 0.0 0.1 0.9 1.9 0.3 0.0 0.3 3.0 5.0 3.5 3.2 1.7 1.6 3.6 3.7 7.1 7.3 4.4 2.3 2.3 1.0 0.1 0.0 0.0
0.0 0.0 0.0 0.0 0.0 0.0 1.6 6.1 0.1 0.0 0.0 10.7 13.5 3.2 0.0 0.0 0.0 0.0 0.0 0.0 0.1 0.6 1.5 1.3 0.3 0.0 0.3 3.9 2.5 1.2 0.8 0.4 0.2 0.2 0.2 1.2 0.7 0.7 0.0 0.0 0.0 0.0 0.0 0.0
0.0 0.0 0.0 0.0 0.0 0.0 0.4 0.0 0.0 0.0 0.8 2.5 18.1 7.8 1.5 0.0 2.2 3.1 0.5 1.3 0.6 0.5 0.6 0.5 0.7 0.2 0.8 10.9 1.0 0.0 0.0 0.0 0.0 0.0 0.0 0.0 0.0 0.0 0.0 0.0 0.0 0.0 0.0 0.0
0.0 0.0 0.0 0.0 0.0 9.3 0.0 0.0 0.0 0.0 3.6 15.2 6.3 4.9 17.9 0.0 2.4 2.0 2.5 0.4 8.9 0.4 3.0 0.5 0.4 4.1 14.9 9.0 1.8 0.8 0.2 0.1 0.1 0.0 0.0 0.0 0.1 0.1 0.0 0.6 0.6 0.1 0.6 2.1
0.0 0.0 4.6 49.6 4.1 0.0 0.0 1.0 19.3 12.4 4.0 2.7 3.3 0.5 8.0 1.9 3.8 6.7 5.6 3.2 4.6 8.0 1.4 0.0 4.5 8.4 3.1 1.1 1.2 1.8 1.1 1.4 0.6 0.5 0.4 0.8 0.8 1.0 1.5 1.9 2.4 2.8 3.1 3.5
0.0 23.0 23.2 0.6 0.0 0.0 5.6 41.6 29.4 11.0 14.7 1.5 1.7 0.4 1.5 2.0 11.3 6.2 2.8 8.6 4.5 8.9 3.5 3.7 9.3 12.3 6.1 3.2 4.4 1.7 0.6 0.5 0.7 1.0 1.2 1.3 1.1 1.3 1.6 2.7 1.6 2.2 2.4 2.9
0.0 0.0 0.0 0.0 8.5 21.4 30.1 28.5 13.3 5.5 3.1 0.5 0.3 0.2 0.2 0.7 1.8 8.2 4.5 8.8 9.8 12.7 3.6 12.2 16.6 7.8 4.0 3.3 3.4 1.0 0.4 0.1 0.1 0.3 0.5 0.9 1.1 1.3 1.4 2.0 2.5 3.1 3.8 4.8
0.0 4.4 16.2 11.5 30.1 44.3 26.1 17.7 8.4 7.6 3.0 2.2 0.8 3.5 1.1 0.5 6.5 13.1 8.8 11.9 14.2 3.7 16.2 21.2 15.6 6.3 2.5 2.3 1.8 1.5 0.9 0.9 0.8 1.4 1.5 1.5 1.7 2.4 3.0 3.9 6.0 6.2 7.3 10.5
8.7 23.9 34.3 20.7 18.6 9.7 8.1 4.9 3.5 3.5 4.1 3.5 1.3 2.8 5.8 5.4 15.7 19.5 22.2 14.2 4.8 16.5 19.3 15.7 12.1 7.0 7.0 4.1 3.4 3.1 5.5 5.9 5.7 6.3 6.4 7.7 7.8 9.3 10.2 9.4 10.1 8.4 10.2 13.2
11.1 6.4 15.1 11.0 8.4 6.4 6.2 4.4 3.8 3.6 5.3 4.5 5.2 5.0 6.1 13.5 20.1 14.1 10.7 11.7 13.0 12.9 13.1 18.5 9.3 6.9 6.1 5.8 5.7 6.1 7.0 7.5 8.1 8.6 8.1 11.3 10.3 8.4 12.6 11.4 10.2 8.1 8.5 8.6
3.5 7.0 12.6 6.8 6.1 8.0 8.4 6.9 7.1 3.9 7.2 5.4 5.9 11.8 15.9 19.0 12.0 12.8 11.4 8.8 18.5 16.9 9.7 8.8 8.5 8.1 8.7 9.1 9.1 9.6 9.8 9.0 8.4 8.2 7.9 8.5 8.6 8.1 8.5 8.8 8.2 8.0 6.5 6.7
4.5 12.5 12.5 11.9 9.3 12.4 12.7 10.1 8.2 5.1 5.1 11.4 5.9 15.9 17.2 9.5 14.4 18.8 13.6 22.1 24.2 13.6 12.0 10.4 10.2 10.1 11.0 10.5 10.1 10.7 9.3 7.8 7.3 7.1 6.6 6.4 5.9 4.6 3.2 4.6 7.0 5.1 5.3 5.1

GFSNW_prec_kuchsnow_291.txt.gz
Snowfall_Accumulation
0.0 0.0 0.0 0.0 0.0 0.0 0.0 0.0 17.9 0.0 0.0 11.6 27.6 21.9 3.8 0.0 0.0 0.0 1.1 2.5 5.4 9.0 8.6 10.0 13.5 7.8 1.8 0.0 0.6 2.7 1.8 14.6 10.5 4.0 0.6 0.6 3.4 16.7 28.0 59.3 56.6 42.6 42.2 48.1
0.0 0.0 0.0 0.0 0.0 0.0 0.0 6.6 4.3 0.0 0.0 37.8 20.0 2.7 1.6 0.9 1.6 0.8 2.2 4.2 4.9 6.5 11.4 15.5 5.9 4.5 0.0 0.0 0.8 5.8 3.4 14.2 14.5 5.8 0.9 0.2 3.8 4.7 9.5 22.3 31.6 50.2 51.2 50.9
0.0 0.0 0.0 0.0 0.0 0.0 0.0 5.2 35.2 3.8 2.7 1.5 3.2 5.2 4.3 4.4 0.0 0.7 0.1 3.4 4.0 5.8 4.4 1.9 6.8 4.4 0.2 0.0 0.0 0.0 0.0 10.7 13.3 15.3 10.5 6.1 12.9 6.6 4.4 11.7 45.3 31.7 29.6 27.8
0.0 0.0 0.0 0.0 0.0 0.0 0.0 12.5 24.8 0.1 21.5 12.2 5.0 4.1 5.8 6.1 5.7 0.5 0.2 3.5 3.4 7.1 12.9 4.7 2.6 1.3 0.4 0.0 0.2 0.0 0.5 16.4 6.2 4.0 4.0 2.4 4.4 6.9 5.0 10.2 11.3 23.5 25.2 16.4
0.0 0.0 0.0 0.0 0.0 0.0 0.0 47.3 8.6 1.8 2.0 0.1 2.9 10.5 14.6 7.1 1.4 5.0 2.1 3.7 1.7 2.9 10.0 4.6 8.2 3.1 0.4 2.7 0.0 0.2 0.1 8.0 7.2 7.0 3.3 1.2 7.0 7.8 4.3 4.1 8.4 11.1 6.5 15.1
0.0 0.0 0.0 0.0 0.0 0.0 0.0 1.4 0.0 3.5 3.0 1.8 5.9 4.8 2.7 3.7 2.7 0.3 0.7 1.7 4.4 4.9 2.1 0.3 0.2 0.5 0.8 2.0 4.1 3.2 3.3 6.3 6.7 10.5 0.9 2.3 11.7 14.0 8.2 5.3 3.8 4.5 8.7 14.7
0.0 0.0 0.0 0.0 0.0 0.0 0.0 0.0 0.6 13.9 17.5 5.2 2.5 0.3 1.0 1.8 1.5 5.6 1.1 0.3 2.0 0.0 0.0 0.0 0.0 0.2 0.1 0.1 0.8 1.0 5.8 5.6 8.1 9.8 5.6 28.5 11.0 1.6 2.0 2.4 2.3 2.6 2.7 2.9
0.0 0.0 0.0 0.0 0.0 0.0 0.0 0.0 0.1 10.1 17.2 1.5 2.0 2.0 2.8 0.2 0.5 2.0 1.3 0.6 0.0 0.0 0.6 3.5 5.8 3.0 1.8 0.7 0.1 0.3 1.0 4.8 15.5 16.8 7.2 4.2 2.4 1.8 2.7 2.7 3.4 1.6 1.1 0.6
0.0 0.0 0.0 0.0 0.0 0.0 0.0 0.0 0.0 5.9 22.3 5.9 0.4 4.7 3.2 5.6 2.9 3.8 1.8 0.0 0.0 0.0 3.1 10.7 14.1 6.7 2.1 1.4 0.5 0.0 0.3 2.0 17.5 19.2 18.2 10.8 2.8 0.5 0.1 0.6 6.8 0.8 0.2 0.3
0.0 0.0 0.0 0.0 0.0 0.0 0.0 0.0 0.0 2.4 25.1 0.2 0.4 2.3 4.5 2.0 3.1 4.6 0.8 0.4 0.1 0.5 8.4 14.2 12.0 7.6 3.3 7.2 4.3 2.8 7.0 11.4 27.7 23.2 30.4 8.7 1.5 0.6 0.2 9.4 9.8 0.8 0.1 0.1
0.0 0.0 0.0 0.0 0.0 0.0 0.0 0.0 0.0 0.0 10.5 0.4 0.0 0.0 0.5 0.6 0.9 6.6 1.9 6.5 4.4 8.7 19.1 16.6 11.5 10.2 7.4 5.1 1.7 5.5 9.8 15.3 14.0 16.9 29.3 25.4 1.2 1.0 4.0 4.6 0.5 0.5 0.2 0.1
0.0 0.0 0.0 0.0 0.0 0.0 0.0 2.1 0.0 0.0 1.5 0.0 0.0 0.0 0.0 0.0 0.0 0.9 2.4 6.0 6.3 9.1 19.6 13.5 5.8 7.1 7.8 4.9 13.5 0.9 9.3 4.9 9.9 9.6 17.7 6.1 3.9 3.7 1.0 0.4 1.2 1.0 0.3 0.1
0.0 0.0 0.0 0.0 0.0 0.0 0.0 0.7 0.0 0.0 6.7 0.1 0.0 0.0 0.0 0.0 0.0 0.0 2.8 0.9 1.1 3.7 3.0 7.0 6.6 8.9 3.0 7.4 4.1 2.7 2.1 0.3 5.4 8.3 5.8 2.5 4.2 1.9 0.4 0.4 1.9 1.2 0.3 0.7
0.0 0.0 0.0 0.0 0.0 0.0 0.0 0.0 0.0 0.0 1.3 11.2 0.9 0.0 0.0 0.0 0.0 0.0 0.0 0.0 0.0 0.0 0.0 4.7 5.3 3.4 0.0 1.4 1.2 0.3 1.4 1.6 3.6 7.1 4.3 2.2 1.7 2.0 1.3 1.1 0.7 0.5 0.2 0.2
0.0 0.0 0.0 0.0 0.0 0.0 0.0 0.0 0.0 0.0 0.8 13.9 3.6 0.0 0.0 0.0 0.0 0.0 0.0 0.0 0.0 0.0 2.5 4.7 2.8 0.3 0.8 0.2 1.0 2.2 0.7 2.6 7.7 10.2 6.5 6.1 5.6 4.0 3.0 3.3 2.3 1.0 0.8 1.0
0.0 0.0 0.0 0.0 0.0 0.0 0.0 28.5 0.0 0.0 0.0 8.1 9.5 0.0 0.0 0.0 0.0 0.0 0.0 0.0 0.0 0.1 0.9 1.9 0.3 0.0 0.3 3.0 5.0 3.5 3.2 1.7 1.6 3.6 3.7 7.1 7.3 4.4 2.3 2.3 1.0 0.1 0.0 0.0
0.0 0.0 0.0 0.0 0.0 0.0 1.6 6.2 0.1 0.0 0.0 10.7 13.6 3.2 0.0 0.0 0.0 0.0 0.0 0.0 0.1 0.6 1.5 1.3 0.3 0.0 0.3 3.9 2.5 1.2 0.8 0.4 0.2 0.2 0.2 1.2 0.7 0.7 0.0 0.0 0.0 0.0 0.0 0.0
0.0 0.0 0.0 0.0 0.0 0.0 0.4 0.0 0.0 0.0 0.8 2.5 18.1 7.8 1.5 0.0 2.2 3.1 0.5 1.3 0.6 0.5 0.6 0.5 0.7 0.2 0.8 10.9 1.0 0.0 0.0 0.0 0.0 0.0 0.0 0.0 0.0 0.0 0.0 0.0 0.0 0.0 0.0 0.0
0.0 0.0 0.0 0.0 0.0 10.0 0.0 0.0 0.0 0.0 3.6 15.2 6.3 4.9 17.9 0.0 2.4 2.0 2.5 0.4 8.9 0.4 3.0 0.5 0.4 4.1 14.9 9.0 1.8 0.8 0.2 0.1 0.1 0.0 0.0 0.0 0.1 0.1 0.0 0.6 0.6 0.1 0.6 2.1
0.0 0.0 4.6 55.4 4.1 0.0 0.0 1.0 19.3 12.4 4.0 2.7 3.3 0.5 8.0 1.9 3.8 6.7 5.6 3.2 4.6 8.0 1.4 0.0 4.5 8.4 3.1 1.1 1.2 1.8 1.1 1.4 0.6 0.5 0.4 0.8 0.8 1.0 1.5 1.9 2.4 2.8 3.1 3.5
0.0 23.0 25.9 0.6 0.0 0.0 5.6 45.0 31.5 11.5 14.9 1.5 1.7 0.4 1.5 2.0 11.3 6.2 2.8 8.6 4.5 9.0 3.5 3.7 9.3 12.3 6.1 3.2 4.4 1.7 0.6 0.5 0.7 1.0 1.2 1.3 1.1 1.3 1.6 2.7 1.6 2.2 2.4 2.9
0.0 0.0 0.0 0.0 8.5 23.1 32.0 29.9 13.4 5.5 3.1 0.5 0.3 0.2 0.2 0.7 1.8 8.2 4.5 8.8 9.8 12.7 3.6 12.2 16.6 7.8 4.0 3.3 3.4 1.0 0.4 0.1 0.1 0.3 0.5 0.9 1.1 1.3 1.4 2.0 2.5 3.1 3.8 4.8
0.0 4.4 19.6 12.8 32.2 46.3 26.8 18.3 8.5 7.6 3.0 2.2 0.8 3.5 1.1 0.5 6.5 13.5 8.8 11.9 14.2 3.7 16.2 21.2 15.6 6.3 2.5 2.3 1.8 1.5 0.9 0.9 0.8 1.4 1.5 1.5 1.7 2.4 3.0 3.9 6.0 6.2 7.3 10.5
10.3 25.7 37.2 21.4 19.1 9.7 8.1 4.9 3.5 3.5 4.1 3.5 1.3 2.8 5.8 5.4 16.2 20.5 22.2 14.2 4.8 16.5 19.3 15.7 12.1 7.0 7.0 4.1 3.4 3.1 5.5 5.9 5.7 6.3 6.4 7.7 7.8 9.3 10.2 9.4 10.1 8.4 10.2 13.2
12.7 6.5 15.4 11.0 8.4 6.4 6.2 4.4 3.8 3.6 5.3 4.5 5.2 5.0 6.1 13.5 20.4 14.6 10.7 11.7 13.0 12.9 13.1 18.5 9.3 6.9 6.1 5.8 5.7 6.1 7.0 7.5 8.1 8.6 8.1 11.3 10.3 8.4 12.6 11.4 10.2 8.1 8.5 8.6
3.5 7.0 12.6 6.8 6.1 8.0 8.4 6.9 7.1 3.9 7.2 5.4 5.9 11.8 15.9 19.0 12.0 12.9 11.4 8.8 18.5 16.9 9.7 8.8 8.5 8.1 8.7 9.1 9.1 9.6 9.8 9.0 8.4 8.2 7.9 8.5 8.6 8.1 8.5 8.8 8.2 8.0 6.5 6.7
4.5 12.5 12.5 11.9 9.3 12.4 12.7 10.1 8.2 5.1 5.1 11.4 5.9 15.9 17.2 9.5 14.4 18.8 13.6 22.1 24.2 13.6 12.0 10.4 10.2 10.1 11.0 10.5 10.1 10.7 9.3 7.8 7.3 7.1 6.6 6.4 5.9 4.6 3.2 4.6 7.0 5.1 5.3 5.1

GFSNW_prec_kuchsnow_297.txt.gz
Snowfall_Accumulation
0.0 0.0 0.0 0.0 0.0 0.0 0.0 0.0 17.9 0.0 0.0 11.6 27.6 21.9 3.8 0.0 0.0 0.0 1.1 2.5 5.4 9.0 8.6 10.0 13.5 7.8 1.8 0.0 0.6 2.7 1.8 14.6 10.5 4.0 0.6 0.6 3.4 16.7 28.0 59.3 56.6 42.6 42.2 48.1
0.0 0.0 0.0 0.0 0.0 0.0 0.0 6.6 4.3 0.0 0.0 37.8 20.0 2.7 1.6 0.9 1.6 0.8 2.2 4.2 4.9 6.5 11.4 15.5 5.9 4.5 0.0 0.0 0.8 5.8 3.4 14.2 14.5 5.8 0.9 0.2 3.8 4.7 9.5 22.3 31.6 50.2 51.2 50.9
0.0 0.0 0.0 0.0 0.0 0.0 0.0 5.2 35.3 3.8 2.7 1.5 3.2 5.2 4.3 4.4 0.0 0.7 0.1 3.4 4.0 5.8 4.4 1.9 6.8 4.4 0.2 0.0 0.0 0.0 0.0 10.7 13.3 15.3 10.5 6.1 12.9 6.6 4.4 11.7 45.3 31.7 29.6 27.8
0.0 0.0 0.0 0.0 0.0 0.0 0.0 12.5 24.8 0.1 21.5 12.2 5.0 4.1 5.8 6.1 5.7 0.5 0.2 3.5 3.4 7.1 12.9 4.7 2.6 1.3 0.4 0.0 0.2 0.0 0.5 16.4 6.2 4.0 4.0 2.4 4.4 6.9 5.0 10.2 11.3 23.5 25.2 16.4
0.0 0.0 0.0 0.0 0.0 0.0 0.0 47.3 8.6 1.8 2.0 0.1 2.9 10.5 14.6 7.1 1.4 5.0 2.1 3.7 1.7 2.9 10.0 4.6 8.2 3.1 0.4 2.7 0.0 0.2 0.1 8.0 7.2 7.0 3.3 1.2 7.0 7.8 4.3 4.1 8.4 11.1 6.5 15.1
0.0 0.0 0.0 0.0 0.0 0.0 0.0 1.4 0.0 3.5 3.0 1.8 5.9 4.8 2.7 3.7 2.7 0.3 0.7 1.7 4.4 4.9 2.1 0.3 0.2 0.5 0.8 2.0 4.1 3.2 3.3 6.3 6.7 10.5 0.9 2.3 11.7 14.0 8.2 5.3 3.8 4.5 8.7 14.7
0.0 0.0 0.0 0.0 0.0 0.0 0.0 0.0 0.6 14.2 17.6 5.2 2.5 0.3 1.0 1.8 1.5 5.6 1.1 0.3 2.0 0.0 0.0 0.0 0.0 0.2 0.1 0.1 0.8 1.0 5.8 5.6 8.1 9.8 5.6 28.5 11.0 1.6 2.0 2.4 2.3 2.6 2.7 2.9
0.0 0.0 0.0 0.0 0.0 0.0 0.0 0.0 0.1 10.3 18.0 1.5 2.0 2.0 2.8 0.2 0.5 2.0 1.3 0.6 0.0 0.0 0.6 3.5 5.8 3.0 1.8 0.7 0.1 0.3 1.0 4.8 15.5 16.8 7.2 4.2 2.4 1.8 2.7 2.7 3.4 1.6 1.1 0.6
0.0 0.0 0.0 0.0 0.0 0.0 0.0 0.0 0.0 5.9 23.3 5.9 0.4 4.7 3.2 5.8 2.9 3.8 1.8 0.0 0.0 0.0 3.1 10.7 15.2 6.7 2.1 1.4 0.5 0.0 0.3 2.0 17.5 19.2 18.2 10.8 2.8 0.5 0.1 0.6 6.8 0.8 0.2 0.3
0.0 0.0 0.0 0.0 0.0 0.0 0.0 0.0 0.0 2.4 26.4 0.2 0.4 2.3 4.5 2.0 3.1 4.7 0.8 1.2 0.1 0.5 8.4 14.5 12.5 7.6 3.3 7.2 4.3 2.8 7.0 11.4 27.7 23.2 30.4 8.7 1.5 0.6 0.2 9.4 9.8 0.8 0.1 0.1
0.0 0.0 0.0 0.0 0.0 0.0 0.0 0.0 0.0 0.0 10.7 0.5 0.0 0.0 0.5 0.6 0.9 7.0 2.4 7.3 5.0 8.7 19.5 16.6 11.5 10.2 7.4 5.1 1.7 5.5 9.8 15.3 14.0 16.9 29.3 25.4 1.2 1.0 4.0 4.6 0.5 0.5 0.2 0.1
0.0 0.0 0.0 0.0 0.0 0.0 0.0 2.1 0.0 0.0 1.5 0.0 0.0 0.0 0.0 0.0 0.0 0.9 2.4 6.4 6.8 9.1 21.6 14.3 5.8 7.1 7.8 4.9 13.5 0.9 9.3 4.9 9.9 9.6 17.7 6.1 3.9 3.7 1.0 0.4 1.2 1.0 0.3 0.1
0.0 0.0 0.0 0.0 0.0 0.0 0.0 0.7 0.0 0.0 6.7 0.1 0.0 0.0 0.0 0.0 0.0 0.0 2.8 0.9 1.1 3.7 3.0 8.0 6.6 8.9 3.0 7.4 4.1 2.7 2.1 0.3 5.4 8.3 5.8 2.5 4.2 1.9 0.4 0.4 1.9 1.2 0.3 0.7
0.0 0.0 0.0 0.0 0.0 0.0 0.0 0.0 0.0 0.0 1.3 11.8 0.9 0.0 0.0 0.0 0.0 0.0 0.0 0.0 0.0 0.0 0.0 4.9 5.3 3.4 0.0 1.4 1.2 0.3 1.4 1.6 3.6 7.1 4.3 2.2 1.7 2.0 1.3 1.1 0.7 0.5 0.2 0.2
0.0 0.0 0.0 0.0 0.0 0.0 0.0 0.0 0.0 0.0 0.8 13.9 3.8 0.0 0.0 0.0 0.0 0.0 0.0 0.0 0.0 0.0 2.6 4.8 2.8 0.3 0.8 0.2 1.0 2.2 0.7 2.6 7.7 10.2 6.5 6.1 5.6 4.0 3.0 3.3 2.3 1.0 0.8 1.0
0.0 0.0 0.0 0.0 0.0 0.0 0.0 29.6 0.0 0.0 0.0 8.1 9.8 0.0 0.0 0.0 0.0 0.0 0.0 0.0 0.0 0.1 0.9 1.9 0.3 0.0 0.3 3.0 5.0 3.5 3.2 1.7 1.6 3.6 3.7 7.1 7.3 4.4 2.3 2.3 1.0 0.1 0.0 0.0
0.0 0.0 0.0 0.0 0.0 0.0 1.6 6.9 0.1 0.0 0.0 10.7 14.2 3.2 0.0 0.0 0.0 0.0 0.0 0.0 0.1 0.6 1.5 1.3 0.3 0.0 0.3 3.9 2.5 1.2 0.8 0.4 0.2 0.2 0.2 1.2 0.7 0.7 0.0 0.0 0.0 0.0 0.0 0.0
0.0 0.0 0.0 0.0 0.0 0.0 0.4 0.0 0.0 0.0 0.8 2.5 18.9 7.8 1.5 0.0 2.2 3.1 0.5 1.3 0.6 0.5 0.6 0.5 0.7 0.2 0.8 10.9 1.0 0.0 0.0 0.0 0.0 0.0 0.0 0.0 0.0 0.0 0.0 0.0 0.0 0.0 0.0 0.0
0.0 0.0 0.0 0.0 0.0 10.9 0.0 0.0 0.0 0.0 3.6 15.7 6.3 4.9 17.9 0.0 2.4 2.0 2.5 0.4 8.9 0.4 3.0 0.5 0.4 4.1 14.9 9.0 1.8 0.8 0.2 0.1 0.1 0.0 0.0 0.0 0.1 0.1 0.0 0.6 0.6 0.1 0.6 2.1
0.0 0.0 4.6 58.0 4.1 0.0 0.0 1.0 19.3 12.4 4.0 2.7 3.3 0.5 8.0 1.9 3.8 6.7 5.6 3.2 4.6 8.0 1.4 0.0 4.5 8.4 3.1 1.1 1.2 1.8 1.1 1.4 0.6 0.5 0.4 0.8 0.8 1.0 1.5 1.9 2.4 2.8 3.1 3.5
0.0 25.5 26.9 0.6 0.0 0.0 5.6 47.4 35.3 13.7 16.3 1.5 1.7 0.4 1.5 2.0 11.8 6.7 2.8 9.4 4.5 9.2 3.5 3.7 9.3 12.3 6.1 3.2 4.4 1.7 0.6 0.5 0.7 1.0 1.2 1.3 1.1 1.3 1.6 2.7 1.6 2.2 2.4 2.9
0.0 0.0 0.0 0.0 8.5 24.8 33.8 31.7 13.8 6.2 3.1 0.5 0.3 0.2 0.2 0.7 1.8 8.2 4.5 8.8 9.8 12.7 3.6 12.2 16.6 7.8 4.0 3.3 3.4 1.0 0.4 0.1 0.1 0.3 0.5 0.9 1.1 1.3 1.4 2.0 2.5 3.1 3.8 4.8
0.0 4.4 22.2 14.9 32.8 47.5 27.7 19.2 8.6 7.6 3.0 2.2 0.8 3.5 1.1 0.5 6.5 13.5 8.8 12.5 14.3 3.7 16.2 21.2 15.6 6.3 2.5 2.3 1.8 1.5 0.9 0.9 0.8 1.4 1.5 1.5 1.7 2.4 3.0 3.9 6.0 6.2 7.3 10.5
12.6 29.0 40.5 22.3 19.5 9.7 8.1 4.9 3.5 3.5 4.1 3.5 1.3 2.8 5.8 5.4 16.2 20.8 22.6 14.2 4.8 16.6 19.3 15.7 12.1 7.0 7.0 4.1 3.4 3.1 5.5 5.9 5.7 6.3 6.4 7.7 7.8 9.3 10.2 9.4 10.1 8.4 10.2 13.2
15.8 7.4 16.3 11.1 8.4 6.4 6.2 4.4 3.8 3.6 5.3 4.5 5.2 5.0 6.1 13.5 20.5 14.6 10.9 12.0 13.1 12.9 13.1 18.5 9.3 6.9 6.1 5.8 5.7 6.1 7.0 7.5 8.1 8.6 8.1 11.3 10.3 8.4 12.6 11.4 10.2 8.1 8.5 8.6
5.2 7.5 12.7 6.8 6.1 8.0 8.4 6.9 7.1 3.9 7.2 5.4 5.9 11.8 16.0 19.1 12.1 12.9 11.4 9.0 18.6 16.9 9.7 8.8 8.5 8.1 8.7 9.1 9.1 9.6 9.8 9.0 8.4 8.2 7.9 8.5 8.6 8.1 8.5 8.8 8.2 8.0 6.5 6.7
5.5 12.5 12.5 11.9 9.3 12.4 12.7 10.1 8.2 5.1 5.1 11.4 5.9 16.0 17.2 9.5 14.5 18.9 13.6 22.1 24.2 13.6 12.0 10.4 10.2 10.1 11.0 10.5 10.1 10.7 9.3 7.8 7.3 7.1 6.6 6.4 5.9 4.6 3.2 4.6 7.0 5.1 5.3 5.1

GFSNW_prec_kuchsnow_303.txt.gz
Snowfall_Accumulation
0.0 0.0 0.0 0.0 0.0 0.0 0.0 0.0 17.9 0.0 0.0 11.6 27.6 21.9 3.8 0.0 0.0 0.0 1.1 2.5 5.4 9.0 8.6 10.1 13.5 7.8 1.8 0.0 0.6 2.7 1.8 14.6 10.9 4.0 0.6 0.6 3.4 16.7 28.0 60.1 57.1 42.6 42.2 48.1
0.0 0.0 0.0 0.0 0.0 0.0 0.0 6.6 4.3 0.0 0.0 37.8 20.0 2.7 1.6 0.9 1.6 0.8 2.2 4.2 4.9 6.5 11.4 15.6 5.9 4.5 0.0 0.0 0.8 5.8 3.4 14.2 14.5 6.2 0.9 0.2 3.8 4.7 9.5 22.3 31.6 50.2 51.2 50.9
0.0 0.0 0.0 0.0 0.0 0.0 0.0 5.2 35.3 3.8 2.7 1.5 3.2 5.2 4.3 4.4 0.0 0.7 0.1 3.4 4.0 5.8 4.4 1.9 6.8 4.4 0.2 0.0 0.0 0.0 0.0 10.7 13.3 15.3 10.5 6.1 12.9 6.6 4.4 11.7 45.3 31.7 29.6 27.8
0.0 0.0 0.0 0.0 0.0 0.0 0.0 12.5 24.8 0.1 21.5 12.2 5.0 4.1 5.8 6.1 5.7 0.5 0.2 3.5 3.4 7.3 13.3 4.7 2.6 1.3 0.4 0.0 0.2 0.0 0.5 16.4 6.2 4.0 4.0 2.4 4.4 6.9 5.0 10.2 11.3 23.5 25.2 16.4
0.0 0.0 0.0 0.0 0.0 0.0 0.0 47.3 8.6 1.8 2.0 0.1 2.9 10.5 14.6 7.1 1.4 5.0 2.1 3.7 1.7 2.9 10.1 4.6 8.3 3.1 0.4 2.7 0.0 0.2 0.1 8.0 7.2 7.1 3.3 1.2 7.0 7.8 4.3 4.1 8.4 11.1 6.5 15.1
0.0 0.0 0.0 0.0 0.0 0.0 0.0 1.4 0.0 3.5 3.0 1.8 5.9 4.8 2.7 3.7 2.7 0.3 0.7 1.7 4.4 4.9 2.1 0.3 0.2 0.5 0.8 2.0 4.1 3.2 3.3 6.3 6.7 10.6 0.9 2.3 11.7 14.0 8.2 5.3 3.8 4.5 8.7 14.7
0.0 0.0 0.0 0.0 0.0 0.0 0.0 0.0 0.6 14.3 17.6 5.2 2.5 0.3 1.0 1.8 1.5 5.6 1.1 0.3 2.0 0.0 0.0 0.0 0.0 0.2 0.1 0.1 0.8 1.0 5.8 5.6 8.1 9.8 5.6 28.5 11.0 1.6 2.0 2.4 2.3 2.6 2.7 2.9
0.0 0.0 0.0 0.0 0.0 0.0 0.0 0.0 0.1 10.4 18.2 1.5 2.0 2.0 2.8 0.2 0.5 2.0 1.3 0.6 0.0 0.0 0.6 3.5 5.8 3.0 1.8 0.7 0.1 0.3 1.0 4.8 15.6 16.8 7.2 4.2 2.4 1.8 2.7 2.7 3.4 1.6 1.1 0.6
0.0 0.0 0.0 0.0 0.0 0.0 0.0 0.0 0.0 5.9 23.7 5.9 0.4 4.7 3.2 5.8 2.9 3.8 1.8 0.0 0.0 0.0 3.1 10.9 16.7 6.7 2.7 1.4 0.5 0.0 0.3 2.0 17.5 19.2 18.2 10.8 2.8 0.5 0.1 0.6 6.8 0.8 0.2 0.3
0.0 0.0 0.0 0.0 0.0 0.0 0.0 0.0 0.0 2.4 26.8 0.2 0.4 2.3 4.6 2.0 3.2 5.0 0.8 1.2 0.1 0.5 8.4 15.1 13.7 9.8 3.3 7.4 4.3 2.8 7.0 11.4 27.7 23.2 30.4 8.7 1.5 0.6 0.2 9.4 9.8 0.8 0.1 0.1
0.0 0.0 0.0 0.0 0.0 0.0 0.0 0.0 0.0 0.0 10.7 0.5 0.0 0.0 0.5 0.6 0.9 7.2 2.4 7.3 5.0 8.7 20.0 17.9 13.2 12.5 9.2 5.2 1.7 5.5 9.8 15.3 14.0 16.9 29.3 25.4 1.2 1.0 4.0 4.6 0.5 0.5 0.2 0.1
0.0 0.0 0.0 0.0 0.0 0.0 0.0 2.1 0.0 0.0 1.5 0.0 0.0 0.0 0.0 0.0 0.0 0.9 2.4 6.5 6.8 9.1 21.6 14.3 5.8 9.6 9.3 5.1 13.5 0.9 9.3 4.9 9.9 9.6 17.7 6.1 3.9 3.7 1.0 0.4 1.2 1.0 0.3 0.1
0.0 0.0 0.0 0.0 0.0 0.0 0.0 0.7 0.0 0.0 6.8 0.1 0.0 0.0 0.0 0.0 0.0 0.0 2.8 0.9 1.1 3.7 3.0 8.3 7.3 10.7 4.1 8.5 4.1 2.7 2.1 0.3 5.4 8.3 5.8 2.5 4.2 1.9 0.4 0.4 1.9 1.2 0.3 0.7
0.0 0.0 0.0 0.0 0.0 0.0 0.0 0.0 0.0 0.0 1.4 12.4 0.9 0.0 0.0 0.0 0.0 0.0 0.0 0.0 0.0 0.0 0.0 5.3 6.0 5.1 0.6 2.6 1.4 0.3 1.4 1.6 3.6 7.1 4.3 2.2 1.7 2.0 1.3 1.1 0.7 0.5 0.2 0.2
0.0 0.0 0.0 0.0 0.0 0.0 0.0 0.0 0.0 0.0 0.8 14.5 3.8 0.0 0.0 0.0 0.0 0.0 0.0 0.0 0.0 0.0 2.8 5.2 3.2 0.3 1.3 0.2 1.0 2.2 0.7 2.6 7.7 10.2 6.5 6.1 5.6 4.0 3.0 3.3 2.3 1.0 0.8 1.0
0.0 0.0 0.0 0.0 0.0 0.0 0.0 29.8 0.0 0.0 0.0 8.7 10.3 0.0 0.0 0.0 0.0 0.0 0.0 0.0 0.0 0.1 1.0 2.0 0.3 0.0 0.8 3.6 5.2 3.5 3.2 1.7 1.6 3.6 3.7 7.1 7.3 4.4 2.3 2.3 1.0 0.1 0.0 0.0
0.0 0.0 0.0 0.0 0.0 0.0 1.9 7.1 0.1 0.0 0.0 11.7 14.8 3.2 0.0 0.0 0.0 0.0 0.0 0.0 0.1 0.6 1.5 1.3 0.3 0.0 0.3 4.1 2.6 1.2 0.8 0.4 0.2 0.2 0.2 1.2 0.7 0.7 0.0 0.0 0.0 0.0 0.0 0.0
0.0 0.0 0.0 0.0 0.0 0.0 0.4 0.0 0.0 0.0 0.8 3.2 19.2 7.8 1.5 0.0 2.2 3.1 0.5 1.3 0.6 0.5 0.6 0.5 0.7 0.2 0.8 11.0 1.0 0.0 0.0 0.0 0.0 0.0 0.0 0.0 0.0 0.0 0.0 0.0 0.0 0.0 0.0 0.0
0.0 0.0 0.0 0.0 0.0 10.9 0.0 0.0 0.0 0.0 3.6 16.6 6.3 4.9 17.9 0.0 2.4 2.0 2.5 0.4 9.1 0.4 3.1 0.5 0.4 4.1 14.9 9.0 1.8 0.8 0.2 0.1 0.1 0.0 0.0 0.0 0.1 0.1 0.0 0.6 0.6 0.1 0.6 2.1
0.0 0.0 4.6 58.4 4.1 0.0 0.0 1.0 19.3 13.6 4.8 3.1 3.5 0.5 8.0 1.9 3.8 6.7 6.2 3.2 4.8 8.3 1.4 0.0 4.5 8.4 3.1 1.1 1.2 1.8 1.1 1.4 0.6 0.5 0.4 0.8 0.8 1.0 1.5 1.9 2.4 2.8 3.1 3.5
0.0 25.6 27.2 0.6 0.0 0.0 5.6 49.2 38.1 16.2 17.5 1.5 1.7 0.4 1.5 2.0 11.8 6.7 3.0 10.3 5.2 9.8 3.5 3.7 9.3 12.3 6.1 3.2 4.4 1.7 0.6 0.5 0.7 1.0 1.2 1.3 1.1 1.3 1.6 2.7 1.6 2.2 2.4 2.9
0.0 0.0 0.0 0.0 8.5 26.7 35.5 33.3 14.1 6.7 3.1 0.5 0.3 0.2 0.2 0.7 1.8 8.6 5.3 10.4 11.5 14.5 3.6 12.3 16.6 7.8 4.0 3.3 3.4 1.0 0.4 0.1 0.1 0.3 0.5 0.9 1.1 1.3 1.4 2.0 2.5 3.1 3.8 4.8
0.0 5.1 24.5 18.0 34.5 49.6 28.5 19.5 8.6 7.6 3.0 2.2 0.8 3.5 1.1 0.5 6.5 13.5 8.8 13.4 15.8 3.9 17.2 21.7 15.6 6.3 2.5 2.3 1.8 1.5 0.9 0.9 0.8 1.4 1.5 1.5 1.7 2.4 3.0 3.9 6.0 6.2 7.3 10.5
13.7 31.2 42.7 24.0 21.1 9.7 8.1 4.9 3.5 3.5 4.1 3.5 1.3 2.8 5.8 5.4 16.2 20.8 22.6 14.2 5.0 17.5 19.6 15.7 12.1 7.0 7.0 4.1 3.4 3.1 5.5 5.9 5.7 6.3 6.4 7.7 7.8 9.3 10.2 9.4 10.1 8.4 10.2 13.2
17.2 8.9 17.6 11.4 8.4 6.4 6.2 4.4 3.8 3.6 5.3 4.5 5.2 5.0 6.1 13.5 20.6 14.6 10.9 12.0 13.2 12.9 13.1 18.5 9.3 6.9 6.1 5.8 5.7 6.1 7.0 7.5 8.1 8.6 8.1 11.3 10.3 8.4 12.6 11.4 10.2 8.1 8.5 8.6
6.0 8.4 13.3 6.8 6.1 8.0 8.4 6.9 7.1 3.9 7.2 5.4 5.9 11.8 16.0 19.4 12.1 12.9 11.4 9.0 18.6 16.9 9.7 8.8 8.5 8.1 8.7 9.1 9.1 9.6 9.8 9.0 8.4 8.2 7.9 8.5 8.6 8.1 8.5 8.8 8.2 8.0 6.5 6.7
6.3 12.5 12.5 11.9 9.3 12.4 12.7 10.1 8.2 5.1 5.1 11.4 5.9 16.2 17.2 9.5 14.6 18.9 13.6 22.1 24.2 13.6 12.0 10.4 10.2 10.1 11.0 10.5 10.1 10.7 9.3 7.8 7.3 7.1 6.6 6.4 5.9 4.6 3.2 4.6 7.0 5.1 5.3 5.1